Location: Ferintosh
(52.7647°N, 112.9692°W)
Time: 13:31:22
(UTC+00:00)

Transit 2A - Pass Details

Date: 27 May 2024
Orbit: 593 x 959 km, 66.7° (Epoch: 14 June)

Event Time Altitude Azimuth Distance (km) Brightness Sun altitude
Rises 03:34:16 0° 151° (SSE) 2,955 8.5 -0.1°
Reaches altitude 10° 03:38:35 10° 112° (ESE) 2,142 7.7 -0.7°
Maximum altitude 03:39:30 11° 101° (E) 2,130 7.8 -0.8°
Drops below altitude 10° 03:40:26 10° 90° (E) 2,187 7.9 -0.9°
Sets 03:45:06 0° 52° (NE) 3,232 9.1 -1.4°
